• In Uzbekistan
  • List of Countries
  • For 7 days
  • Water Temperature
  • Satellite Maps
  • Weather Map
  • Weather Widgets
  • user-avatar
    Login

    Hourly Weather Yerevan

    Today, 22 August, Tuesday

    Time Temperature Precipitation Wind Pressure Humidity
    00:00 +26°C° 0 mm 2 mps 688 mmHg 51%
    01:00 +25°C° 0 mm 2 mps 688 mmHg 52%
    02:00 +25°C° 0 mm 2 mps 688 mmHg 53%
    03:00 +25°C° 0 mm 2 mps 687 mmHg 50%
    04:00 +25°C° 0 mm 2 mps 688 mmHg 50%
    05:00 +25°C° 0 mm 1 mps 688 mmHg 50%
    06:00 +25°C° 0 mm 1 mps 688 mmHg 50%
    07:00 +27°C° 0 mm 1 mps 688 mmHg 43%
    08:00 +30°C° 0 mm 1 mps 688 mmHg 35%
    09:00 +32°C° 0 mm 2 mps 689 mmHg 29%
    10:00 +35°C° 0 mm 2 mps 689 mmHg 26%
    11:00 +36°C° 0 mm 2 mps 688 mmHg 24%
    12:00 +37°C° 0 mm 2 mps 688 mmHg 21%
    13:00 +38°C° 0 mm 2 mps 688 mmHg 20%
    14:00 +38°C° 0 mm 2 mps 687 mmHg 19%
    15:00 +38°C° 0 mm 3 mps 687 mmHg 18%
    16:00 +37°C° 0 mm 2 mps 687 mmHg 21%
    17:00 +36°C° 0 mm 2 mps 686 mmHg 24%
    18:00 +35°C° 0 mm 2 mps 686 mmHg 27%
    19:00 +32°C° 0 mm 2 mps 686 mmHg 32%
    20:00 +30°C° 0 mm 2 mps 687 mmHg 37%
    21:00 +29°C° 0 mm 2 mps 687 mmHg 42%
    22:00 +28°C° 0 mm 2 mps 687 mmHg 44%
    23:00 +27°C° 0 mm 2 mps 687 mmHg 46%

    Tomorrow, 23 August, Wednesday

    Time Temperature Precipitation Wind Pressure Humidity
    00:00 +27°C° 0 mm 2 mps 687 mmHg 48%
    01:00 +26°C° 0 mm 2 mps 687 mmHg 49%
    02:00 +26°C° 0 mm 2 mps 687 mmHg 50%
    03:00 +25°C° 0 mm 2 mps 687 mmHg 51%
    04:00 +25°C° 0 mm 2 mps 687 mmHg 51%
    05:00 +25°C° 0 mm 2 mps 688 mmHg 51%
    06:00 +25°C° 0 mm 2 mps 688 mmHg 52%
    07:00 +27°C° 0 mm 2 mps 688 mmHg 45%
    08:00 +29°C° 0 mm 2 mps 688 mmHg 38%
    09:00 +32°C° 0 mm 2 mps 688 mmHg 32%
    10:00 +34°C° 0 mm 2 mps 688 mmHg 28%
    11:00 +36°C° 0 mm 2 mps 688 mmHg 25%
    12:00 +37°C° 0 mm 2 mps 688 mmHg 22%
    13:00 +37°C° 0 mm 2 mps 688 mmHg 21%
    14:00 +38°C° 0 mm 2 mps 688 mmHg 20%
    15:00 +38°C° 0 mm 3 mps 688 mmHg 19%
    16:00 +37°C° 0 mm 3 mps 688 mmHg 23%
    17:00 +36°C° 0 mm 3 mps 688 mmHg 26%
    18:00 +35°C° 0 mm 3 mps 688 mmHg 30%
    19:00 +33°C° 0 mm 3 mps 688 mmHg 35%
    20:00 +30°C° 0 mm 4 mps 689 mmHg 40%
    21:00 +28°C° 0 mm 4 mps 689 mmHg 45%
    22:00 +27°C° 0 mm 4 mps 689 mmHg 46%
    23:00 +26°C° 0 mm 3 mps 689 mmHg 47%

    Day after tomorrow, 24 August, Thursday

    Time Temperature Precipitation Wind Pressure Humidity
    00:00 +26°C° 0 mm 3 mps 690 mmHg 48%
    01:00 +25°C° 0 mm 3 mps 690 mmHg 50%
    02:00 +24°C° 0 mm 3 mps 690 mmHg 52%
    03:00 +24°C° 0 mm 2 mps 689 mmHg 54%
    04:00 +24°C° 0 mm 2 mps 690 mmHg 55%
    05:00 +23°C° 0 mm 2 mps 690 mmHg 56%
    06:00 +23°C° 0 mm 2 mps 690 mmHg 58%
    07:00 +26°C° 0 mm 2 mps 690 mmHg 51%
    08:00 +28°C° 0 mm 2 mps 690 mmHg 43%
    09:00 +30°C° 0 mm 2 mps 691 mmHg 36%
    10:00 +32°C° 0 mm 2 mps 691 mmHg 32%
    11:00 +34°C° 0 mm 2 mps 691 mmHg 29%
    12:00 +36°C° 0 mm 2 mps 690 mmHg 25%
    13:00 +37°C° 0 mm 2 mps 690 mmHg 24%
    14:00 +37°C° 0 mm 3 mps 690 mmHg 23%
    15:00 +38°C° 0 mm 3 mps 690 mmHg 22%
    16:00 +37°C° 0 mm 3 mps 689 mmHg 24%
    17:00 +36°C° 0 mm 3 mps 689 mmHg 27%
    18:00 +35°C° 0 mm 3 mps 689 mmHg 30%
    19:00 +33°C° 0 mm 3 mps 690 mmHg 33%
    20:00 +30°C° 0 mm 3 mps 690 mmHg 36%
    21:00 +28°C° 0 mm 3 mps 690 mmHg 40%
    22:00 +27°C° 0 mm 3 mps 691 mmHg 40%
    23:00 +26°C° 0 mm 3 mps 691 mmHg 40%

    25 August, Friday

    Time Temperature Precipitation Wind Pressure Humidity
    00:00 +26°C° 0 mm 3 mps 691 mmHg 40%
    01:00 +25°C° 0 mm 3 mps 691 mmHg 41%
    02:00 +25°C° 0 mm 3 mps 691 mmHg 42%
    03:00 +24°C° 0 mm 3 mps 691 mmHg 44%
    04:00 +24°C° 0 mm 2 mps 691 mmHg 45%
    05:00 +23°C° 0 mm 2 mps 691 mmHg 46%
    06:00 +23°C° 0 mm 2 mps 691 mmHg 47%
    07:00 +25°C° 0 mm 2 mps 691 mmHg 41%
    08:00 +28°C° 0 mm 2 mps 692 mmHg 36%
    09:00 +30°C° 0 mm 2 mps 692 mmHg 30%
    10:00 +32°C° 0 mm 2 mps 691 mmHg 28%
    11:00 +34°C° 0 mm 2 mps 691 mmHg 25%
    12:00 +35°C° 0 mm 2 mps 691 mmHg 23%
    13:00 +36°C° 0 mm 2 mps 691 mmHg 22%
    14:00 +37°C° 0 mm 2 mps 690 mmHg 21%
    15:00 +37°C° 0 mm 3 mps 690 mmHg 20%
    16:00 +36°C° 0 mm 3 mps 690 mmHg 22%
    17:00 +35°C° 0 mm 3 mps 690 mmHg 24%
    18:00 +34°C° 0 mm 3 mps 690 mmHg 26%
    19:00 +31°C° 0 mm 3 mps 690 mmHg 29%
    20:00 +29°C° 0 mm 3 mps 690 mmHg 31%
    21:00 +27°C° 0 mm 3 mps 691 mmHg 34%
    22:00 +26°C° 0 mm 3 mps 691 mmHg 34%
    23:00 +25°C° 0 mm 3 mps 691 mmHg 34%

    26 August, Saturday

    Time Temperature Precipitation Wind Pressure Humidity
    00:00 +25°C° 0 mm 3 mps 691 mmHg 35%
    01:00 +24°C° 0 mm 3 mps 691 mmHg 35%
    02:00 +22°C° 0 mm 3 mps 691 mmHg 36%
    03:00 +22°C° 0 mm 3 mps 690 mmHg 36%
    04:00 +22°C° 0 mm 3 mps 690 mmHg 37%
    05:00 +21°C° 0 mm 2 mps 691 mmHg 37%
    06:00 +21°C° 0 mm 2 mps 691 mmHg 38%
    07:00 +24°C° 0 mm 2 mps 691 mmHg 34%
    08:00 +27°C° 0 mm 2 mps 691 mmHg 29%
    09:00 +29°C° 0 mm 2 mps 691 mmHg 25%
    10:00 +30°C° 0 mm 2 mps 691 mmHg 23%
    11:00 +32°C° 0 mm 2 mps 690 mmHg 22%
    12:00 +34°C° 0 mm 2 mps 690 mmHg 20%
    13:00 +35°C° 0 mm 2 mps 690 mmHg 19%
    14:00 +35°C° 0 mm 2 mps 690 mmHg 19%
    15:00 +36°C° 0 mm 3 mps 689 mmHg 19%
    16:00 +35°C° 0 mm 3 mps 689 mmHg 21%
    17:00 +34°C° 0 mm 3 mps 689 mmHg 23%
    18:00 +33°C° 0 mm 3 mps 689 mmHg 25%
    19:00 +30°C° 0 mm 3 mps 689 mmHg 28%
    20:00 +28°C° 0 mm 3 mps 690 mmHg 31%
    21:00 +26°C° 0 mm 3 mps 690 mmHg 34%
    22:00 +25°C° 0 mm 3 mps 690 mmHg 35%
    23:00 +24°C° 0 mm 3 mps 690 mmHg 36%

    27 August, Sunday

    Time Temperature Precipitation Wind Pressure Humidity
    00:00 +24°C° 0 mm 2 mps 690 mmHg 37%
    01:00 +23°C° 0 mm 2 mps 690 mmHg 38%
    02:00 +23°C° 0 mm 2 mps 690 mmHg 40%
    03:00 +21°C° 0 mm 2 mps 689 mmHg 41%
    04:00 +21°C° 0 mm 2 mps 689 mmHg 42%
    05:00 +21°C° 0 mm 2 mps 690 mmHg 43%
    06:00 +20°C° 0 mm 2 mps 690 mmHg 43%
    07:00 +24°C° 0 mm 2 mps 690 mmHg 38%
    08:00 +26°C° 0 mm 2 mps 690 mmHg 33%
    09:00 +29°C° 0 mm 2 mps 690 mmHg 27%
    10:00 +30°C° 0 mm 2 mps 690 mmHg 25%
    11:00 +31°C° 0 mm 2 mps 689 mmHg 23%
    12:00 +34°C° 0 mm 2 mps 689 mmHg 21%
    13:00 +34°C° 0 mm 2 mps 689 mmHg 20%
    14:00 +35°C° 0 mm 2 mps 688 mmHg 20%
    15:00 +35°C° 0 mm 2 mps 688 mmHg 19%
    16:00 +35°C° 0 mm 2 mps 688 mmHg 21%
    17:00 +34°C° 0 mm 2 mps 688 mmHg 23%
    18:00 +32°C° 0 mm 2 mps 688 mmHg 25%
    19:00 +30°C° 0 mm 2 mps 688 mmHg 28%
    20:00 +28°C° 0 mm 3 mps 689 mmHg 31%
    21:00 +26°C° 0 mm 3 mps 689 mmHg 34%
    22:00 +25°C° 0 mm 3 mps 689 mmHg 36%
    23:00 +24°C° 0 mm 2 mps 689 mmHg 37%
    Show more